Location: Erp
(42.9417°N, 1.2009°E)
Time: 18:14:33
(UTC+00:00)

SJ-7 - Pass Details

Date: 18 April 2026
Orbit: 491 x 514 km, 97.7° (Epoch: 12 May)

Event Time Altitude Azimuth Distance (km) Brightness Sun altitude
Rises 19:45:38 0° 206° (SSW) 2,616 7.8 -11.8°
Reaches altitude 10° 19:48:24 10° 229° (SW) 1,739 7.1 -12.2°
Maximum altitude 19:50:43 16° 267° (W) 1,421 7.3 -12.6°
Drops below altitude 10° 19:53:03 10° 306° (NW) 1,750 8.3 -13.0°
Sets 19:55:52 0° 329° (NNW) 2,644 8.9 -13.4°
